Location: Newark
(39.5667°N, 8.9833°E)
Time: 02:38:06
(UTC+00:00)

Transit 2A - Pass Details

Date: 28 October 2019
Orbit: 601 x 957 km, 66.7° (Epoch: 20 November)

Event Time Altitude Azimuth Distance (km) Brightness Sun altitude
Rises 17:28:38 0° 236° (SW) 3,325 10.5 -12.3°
Reaches altitude 10° 17:31:28 10° 247° (WSW) 2,333 9.8 -12.9°
Maximum altitude 17:36:03 29° 307° (NW) 1,323 7.8 -13.7°
Drops below altitude 10° 17:40:18 10° 8° (N) 2,143 8.2 -14.6°
Sets 17:42:48 0° 19° (NNE) 3,010 8.8 -15.0°
